sat.trackr.live / text

‹ back to catalog

COSMOS 2508 (RODNIK-S *)

NORAD 40921 · 2015-050B

PAYLOAD ACTIVE UNKNOWN

§ Identity

Operator
Country
CIS
Launch date
2015-09-23
Launch site
PLMSC
Launch vehicle
Mass (kg)
RCS (m²)
1.50

External: N2YO · Heavens-Above · Gunter

§ Orbital elements

Epoch: 2026-05-25T03:58:28.606368Z

Period
115.86 min
Inclination
82.4858°
Eccentricity
0.0015559
Mean motion
12.42913342 rev/d
Perigee alt
1,482.0 km
Apogee alt
1,506.5 km
Semi-major
7,872.4 km
B*
9.8091e-5
RAAN
92.5159°
Arg perigee
73.6867°
Mean anomaly
286.5922°
Rev number
48,398

§ Raw data

COSMOS 2508 (RODNIK-S *)1 40921U 15050B   26145.16560887  .00000024  00000+0  98091-4 0  99922 40921  82.4858  92.5159 0015559  73.6867 286.5922 12.42913342483983

JSON: /api/v1/satellites/40921 · /tle

For live sub-satellite position, see the globe view (requires WebGL).

§ Visibility from observer

Set your observer location to see the next 7 days of passes ≥ 10°. The values pass through the URL so the page stays shareable.

No JS? Fill the form by hand. The geolocation button needs JavaScript.

§ Radio — SatNOGS DB

ModeDescriptionDownlinkUplink
FM UHF Unknown 388.687 MHz

1 transmitter · refreshed weekly from db.satnogs.org